Regional Weather Roundup
Issued by NWS Jackson, KY

Home | Current Version | Previous Version | Graphics & Text | Print | Product List | Glossary On
Versions: 1 2 3 4 5 6 7 8 9 10 11 12 13 14 15 16 17 18 19 20 21 22 23 24 25 26 27
000
ASUS43 KJKL 221510
RWRJKL

EAST KENTUCKY HOURLY WEATHER ROUNDUP
NATIONAL WEATHER SERVICE JACKSON KY
1100 AM EDT SUN APR 22 2018

NOTE: "FAIR" INDICATES FEW OR NO CLOUDS BELOW 12,000 FEET WITH
NO SIGNIFICANT WEATHER AND/OR OBSTRUCTIONS TO VISIBILITY.

* THESE REPORTS ARE NOT UNDER NWS QUALITY CONTROL AND MAY NOT
  REPORT WEATHER SUCH AS PRECIPITATION AND FOG.

KYZ079-080-083-085-087-088-110-112-115-119-120-221600
...EASTERN KENTUCKY...

CITY           SKY/WX    TMP DP  RH WIND       PRES   REMARKS
JACKSON          N/A     61  31  32 CALM      30.26S
LONDON           N/A     61  39  44 S3        30.24F
SOMERSET*        N/A     61  37  41 MISG      30.24F
MONTICELLO*      N/A     59  41  51 E5        30.24F
WILLIAMSBURG*    N/A     59  37  44 SE5       30.24S
MIDDLESBORO*     N/A     59  43  55 CALM      30.26F
HARLAN APT*      N/A     62  35  36 CALM      30.26F
PIKE CO APT*     N/A     62  36  38 CALM      30.27S
BIG SANDY APT*   N/A     62  35  36 CALM      30.27S
MOREHEAD APT*    N/A     61  25  25 VRB3      30.27F
ASHLAND*         N/A     56  32  40 CALM      30.30R
$$

KYZ035-036-041-042-044-050-067-078-099-221600
...CENTRAL KENTUCKY...

CITY           SKY/WX    TMP DP  RH WIND       PRES   REMARKS
MT STERLING*     N/A     57  32  38 SE6       30.27F
FLEMING/MASON*   N/A     55  32  41 E8        30.29S
DANVILLE*        N/A     59  36  41 CALM      30.24F
LEXINGTON        N/A     61  32  33 E5        30.24F
FRANKFORT        N/A     60  32  34 SE6       30.23F
LOUISVILLE     PTSUNNY   61  32  33 E6        30.22F
GLASGOW*         N/A     56  42  59 NE6       30.19R
BOWLING GREEN  CLOUDY    58  44  60 E6        30.17S
$$

KYZ091>093-OHZ055-061-077-WVZ005-015-034-035-042-221600
...SOUTHERN OHIO/WEST VIRGINIA...

CITY           SKY/WX    TMP DP  RH WIND       PRES   REMARKS
COVINGTON      PTSUNNY   55  30  38 NE14      30.26F
COLUMBUS       CLOUDY    56  30  37 NE6       30.33S
DAYTON         CLOUDY    53  33  46 NE8       30.32S
WILMINGTON       N/A     51  35  54 E7        30.30S
HUNTINGTON       N/A     57  28  33 NE7       30.29R
CHARLESTON     PTSUNNY   61  30  31 CALM      30.28S
PINEVILLE*       N/A     62  32  32 MISG      30.34R
BECKLEY          N/A     63  34  33 CALM      30.29S
BLUEFIELD        N/A     60  31  33 VRB5      30.31R
LOGAN CO APT*    N/A     63  32  31 CALM      30.28R
$$

VAZ002-007-008-TNZ017-027-036-066-071-221600
...SOUTHWEST VIRGINIA/EAST TENNESSEE...

CITY           SKY/WX    TMP DP  RH WIND       PRES   REMARKS
WISE*            N/A     61  36  39 SE3       30.30S
JONESVILLE*      N/A     63  36  36 NE5       30.29S
ABINGDON*        N/A     62  36  38 CALM      30.30S
BRISTOL        CLOUDY    61  43  51 E3        30.28F
MORRISTOWN*    SUNNY     63  41  45 E7        30.24F
SEVIERVILLE*   SUNNY     64  45  48 N3        30.23F
KNOXVILLE      CLOUDY    61  44  53 NE9       30.23F
LAFOLLETTE*    SUNNY     59  39  47 CALM      30.28S
OAK RIDGE      CLOUDY    61  43  51 CALM      30.25F
CROSSVILLE     CLOUDY    57  44  62 SE10G17   30.22R
NASHVILLE      RAIN      58  55  90 E8        30.15R FOG
$$

...KEY TO REMARKS...
VSB - VISIBILITY IN MILES
WCI - WIND CHILL INDEX
HX  - HEAT INDEX

$$




USA.gov is the U.S. government's official web portal to all federal, state and local government web resources and services.